Flag for U.S.A. Weather past 2 weeks in Grand Rapids, Michigan, U.S.A.

Now
56 °F

Scattered clouds.


Feels Like: 55 °F
Forecast: 34 / 57 °F
Wind: 6 mph from West

Location: Kent County International Airport

Current Time: Oct 23, 2014 at 2:50:36 PM

Latest Report: Oct 23, 2014 at 1:53 PM


Visibility: 10 mi

Pressure: 30.20 "Hg

Humidity: 53%

Dew point: 39 °F

Location of Grand RapidsLocation

Historic Weather in Grand Rapids — Graph

°F

Grand Rapids temperature yesterday

Maximum temperature yesterday: 50 °F (at 2:53 PM)
Minimum temperature yesterday: 30 °F (at 6:53 AM)
Average temperature yesterday: 40 °F

Past Weeks' High & Low Weather Summary

 TemperatureHumidityPressure
High71 °F (Oct 13, 11:53 PM)100% (Oct 13, 8:53 AM)30.41 "Hg (Oct 13, 8:53 AM)
Low29 °F (Oct 23, 6:53 AM)36% (Oct 11, 4:53 PM)29.51 "Hg (Oct 17, 10:53 AM)
Average50 °F79%29.98 "Hg
* Reported Oct 8 12:53 PM — Oct 23 12:53 PM, Grand Rapids, Weather by CustomWeather, © 2014

Note: Actual official high and low records may vary slightly from our data, if they occured in-between our weather recording intervals... More about our weather records

Advertising

Grand Rapids weather history for previous 24 hours

 ConditionsComfort  
Time TempWeatherWind HumidityBarometerVisibility
12:53 PM
Oct 23
54 °FPartly sunny.9 mph59%30.23 "Hg10 mi
11:53 AM51 °FPartly sunny.5 mph71%30.25 "Hg10 mi
10:53 AM43 °FFog.6 mph93%30.27 "Hg5 mi
9:53 AM33 °FFog.No wind100%30.27 "Hg1 mi
8:53 AM31 °FIce fog.3 mph92%30.27 "Hg1 mi
7:53 AM29 °FIce fog.No wind93%30.27 "Hg2 mi
7:02 AM29 °FIce fog.No wind93%30.25 "Hg2 mi
6:53 AM29 °FIce fog.No wind93%30.27 "Hg1 mi
5:53 AM30 °FIce fog.No wind92%30.27 "Hg1 mi
5:04 AM31 °FIce fog.3 mph92%30.25 "Hg1 mi
4:53 AM31 °FIce fog.3 mph92%30.28 "Hg4 mi
3:53 AM32 °FPassing clouds.No wind88%30.29 "Hg7 mi
2:53 AM33 °FClear.No wind92%30.30 "Hg9 mi
1:53 AM33 °FFog.No wind92%30.31 "Hg6 mi
12:53 AM34 °FFog.3 mph92%30.31 "Hg6 mi
11:53 PM
Oct 22
36 °FClear.No wind89%30.32 "Hg8 mi
10:53 PM38 °FClear.No wind90%30.32 "Hg8 mi
9:53 PM38 °FClear.3 mph90%30.32 "Hg8 mi
8:53 PM40 °FClear.3 mph86%30.33 "Hg10 mi
7:53 PM42 °FClear.5 mph79%30.32 "Hg10 mi
6:53 PM45 °FPassing clouds.6 mph74%30.33 "Hg10 mi
5:53 PM49 °FPassing clouds.No wind69%30.33 "Hg10 mi
4:53 PM50 °FScattered clouds.5 mph66%30.34 "Hg10 mi
3:53 PM50 °FScattered clouds.7 mph66%30.35 "Hg10 mi
2:53 PM50 °FScattered clouds.8 mph66%30.36 "Hg10 mi
Weather by CustomWeather, © 2014

See weather overviewHow to use our weather pages